Flag for U.S.A. Weather past 2 weeks in New Bedford, Massachusetts, U.S.A.

Now
55 °F

Clear.


Feels Like: 54 °F
Forecast: 44 / 64 °F
Wind: 5 mph from Southwest

Location: New Bedford Regional Airport

Current Time: Oct 25, 2014 at 7:40:41 PM

Latest Report: Oct 25, 2014 at 6:53 PM


Visibility: 10 mi

Pressure: 29.61 "Hg

Humidity: 69%

Dew point: 45 °F

Location of New BedfordLocation

Historic Weather in New Bedford — Graph

°F

New Bedford temperature yesterday

Maximum temperature yesterday: 54 °F (at 3:53 PM)
Minimum temperature yesterday: 49 °F (at 11:53 PM)
Average temperature yesterday: 51 °F

Past Weeks' High & Low Weather Summary

 TemperatureHumidityPressure
High77 °F (Oct 15, 11:53 AM)100% (Oct 13, 5:53 AM)30.36 "Hg (Oct 13, 5:53 AM)
Low32 °F (Oct 20, 6:53 AM)39% (Oct 12, 1:53 PM)29.50 "Hg (Oct 18, 3:53 PM)
Average56 °F82%29.91 "Hg
* Reported Oct 10 5:53 PM — Oct 25 5:53 PM, New Bedford, Weather by CustomWeather, © 2014

Note: Actual official high and low records may vary slightly from our data, if they occured in-between our weather recording intervals... More about our weather records

Advertising

New Bedford weather history for previous 24 hours

 ConditionsComfort  
Time TempWeatherWind HumidityBarometerVisibility
5:53 PM
Oct 25
57 °FSunny.8 mph58%29.60 "Hg10 mi
4:53 PM62 °FSunny.10 mph56%29.60 "Hg10 mi
3:53 PM65 °FSunny.12 mph40%29.62 "Hg10 mi
2:53 PM63 °FSunny.8 mph41%29.63 "Hg10 mi
1:53 PM65 °FSunny.13 mph44%29.65 "Hg10 mi
12:53 PM63 °FSunny.8 mph50%29.68 "Hg10 mi
11:53 AM60 °FSunny.7 mph53%29.71 "Hg10 mi
10:53 AM58 °FSunny.10 mph58%29.73 "Hg10 mi
9:53 AM56 °FSunny.8 mph65%29.75 "Hg10 mi
8:53 AM51 °FSunny.No wind71%29.76 "Hg10 mi
7:53 AM45 °FClear.3 mph90%29.78 "Hg10 mi
6:53 AM43 °FClear.3 mph89%29.77 "Hg10 mi
5:53 AM43 °FClear.No wind89%29.76 "Hg10 mi
4:53 AM45 °FPassing clouds.3 mph86%29.75 "Hg10 mi
3:53 AM45 °FPassing clouds.5 mph90%29.75 "Hg10 mi
2:53 AM46 °FClear.5 mph86%29.75 "Hg10 mi
1:53 AM46 °FClear.3 mph86%29.74 "Hg10 mi
12:53 AM47 °FPassing clouds.3 mph83%29.74 "Hg10 mi
11:53 PM
Oct 24
49 °FPassing clouds.6 mph77%29.74 "Hg10 mi
10:53 PM50 °FOvercast.6 mph77%29.73 "Hg10 mi
9:53 PM50 °FOvercast.5 mph77%29.72 "Hg10 mi
8:53 PM51 °FOvercast.6 mph77%29.72 "Hg10 mi
7:53 PM51 °FOvercast.5 mph80%29.72 "Hg10 mi
Weather by CustomWeather, © 2014

See weather overviewHow to use our weather pages